Regional Weather Roundup
Issued by NWS Wakefield, VA

Home | Current Version | Previous Version | Graphics & Text | Print | Product List | Glossary On
Versions: 1 2 3 4 5 6 7 8 9 10 11 12 13 14 15 16 17 18 19 20 21 22 23 24 25 26 27 28
000
ASUS41 KAKQ 220915
RWRAKQ

REGIONAL WEATHER ROUNDUP
NATIONAL WEATHER SERVICE WAKEFIELD VA
500 AM EDT TUE AUG 22 2017

Note: "fair" indicates few or no clouds below 12,000 feet with no
significant weather and/or obstructions to visibility. * = Denotes
station may not report precipitation (e.g., rain,snow,etc.),
thunder or fog.

VAZ042-051-052>054-056-221000-
NORTHERN VIRGINIA

CITY           SKY/WX    TMP DP  RH WIND       PRES   REMARKS
WASH NATIONAL  MOCLDY    76  75  97 S9        30.05F
DULLES         PTCLDY    72  72 100 S3        30.05F
FORT BELVOIR   CLEAR     72  71  97 CALM      30.05F
QUANTICO       CLEAR     77  75  93 SW8       30.06F
FREDERICKSBRG* CLEAR     74  74 100 S3        30.06S
STAFFORD*      CLEAR     72  72 100 CALM      30.10S FOG
WARRENTON      FOG       66  64  91 CALM      30.05F VSB 3/4
CULPEPER*      CLEAR     66  66 100 CALM      30.07S FOG
MANASSAS*      CLEAR     69  69 100 CALM      30.06S
LEESBURG*      CLEAR     70  70 100 CALM      30.06S
WINCHESTER     CLEAR     68  66  94 CALM      30.06F
FRONT ROYAL*   SUNNY     70  70 100 S3        30.06S
LURAY*         SUNNY     68  68 100 CALM      30.08F FOG
$$

VAZ048-049-060>072-079>083-221000-
CENTRAL AND SOUTH CENTRAL VIRGINIA

CITY           SKY/WX    TMP DP  RH WIND       PRES   REMARKS
RICHMOND       CLEAR     73  72  96 CALM      30.09S
CHESTERFIELD*  FAIR      71  70  96 CALM      30.09F
PETERSBURG*    CLEAR     71  71 100 CALM      30.10S
HANOVER        CLEAR     74  69  85 CALM      30.09F
TAPPAHANNOCK*  CLEAR     74  74 100 S3        30.09S
QUINTON*       FAIR     N/A N/A N/A CALM      30.08F
CHARLOTTSVILLE CLEAR     74  70  87 SW5       30.07F
GORDONSVILLE*  SUNNY     69  69 100 SW3       30.07S
ORANGE*        CLEAR     68  68 100 CALM      30.07F
LOUISA*        CLEAR     72  70  94 S3        30.08S
BUMPASS*       FAIR      71  71 100 SW5       30.08S
FARMVILLE*     PTCLDY    71  69  94 CALM      30.08F FOG
CREWE*         FAIR      71  67  87 CALM      30.09F
FORT PICKETT*  FAIR     N/A N/A N/A CALM      30.10S
CHASE CITY*    FAIR      71  71  99 CALM      30.11S
CLARKSVILLE*   FAIR      70  70 100 CALM      30.10S
SOUTH HILL*    CLEAR     70  70 100 SW3       30.16S
LAWRENCEVILLE* FAIR      72  71  97 CALM      30.10S
EMPORIA*         N/A     70  70 100 CALM      30.12S
$$

VAZ088>098-221000-
SOUTHEAST VIRGINIA

CITY           SKY/WX    TMP DP  RH WIND       PRES   REMARKS
NORFOLK        CLEAR     76  74  93 S5        30.10S
VIRGINIA BEACH CLEAR     76  73  91 S6        30.09F
NORFOLK NAVAL  PTCLDY    78  74  87 SW6       30.11S
WEST POINT*    CLEAR     76  74  93 S3        30.11R
SALUDA*        FAIR      75  75 100 S5        30.08S
NEWPORT NEWS   PTCLDY    76  73  91 SW7       30.10S
LANGLEY AFB    CLEAR     77  75  94 S7        30.09F
FORT EUSTIS    CLEAR     77  74  90 S3        30.07F
WILLIAMSBURG*  CLEAR     79  75  89 CALM      30.10F
HR EXEC AP*    FAIR      75  72  88 S6        30.08F
FRANKLIN*      CLEAR     73  72  96 S3        30.11S
US460-WAKEFLD  CLEAR     74  73  97 S3        30.10S
$$

VAZ020-022-025-037-045-221000-
WEST CENTRAL AND SOUTHWEST VIRGINIA

CITY           SKY/WX    TMP DP  RH WIND       PRES   REMARKS
STAUNTON*      CLEAR     68  66  94 CALM      30.12F
WAYNESBORO*    SUNNY     68  68 100 CALM      30.12S
HOT SPRINGS VA CLEAR     68  59  73 SW12      30.24F
LYNCHBURG      CLEAR     69  68  96 CALM      30.11F FOG
DANVILLE       CLEAR     67  67 100 CALM      30.11F
SOUTH BOSTON*    N/A     68  66  94 CALM      30.10S VSB 1
MARTINSVILLE   MOCLDY    65  64  97 CALM      30.14F FOG
ROANOKE        CLEAR     71  70  96 CALM      30.13F
BLACKSBURG     FOG       66  66 100 CALM      30.20F VSB 1/2
DUBLIN*        CLEAR     65  65 100 CALM      30.18F
MARION*        CLEAR     64  50  60 CALM      30.22S
HILLSVILLE*    CLEAR     69  64  83 CALM      30.19F
RICHLANDS*     FAIR      71  60  67 W5        30.19F
WISE*          PTCLDY    68  66  94 S5        30.20F
ABINGDON*      CLEAR     69  69 100 CALM      30.17S
$$

MDZ021>025-VAZ099-100-221000-
SOUTHERN MARYLAND AND THE DELMARVA PENINSULA

CITY           SKY/WX    TMP DP  RH WIND       PRES   REMARKS
PATUXENT RIVER CLEAR     76  74  93 SW8       30.07S
BAY BRIDGE APT CLEAR     79  73  83 SW7       30.05F
LEONARDTOWN    CLEAR     73  72  94 S3        30.09S
DOVER          CLEAR     75  75 100 S7        30.04F
GEORGETOWN     CLOUDY    76  74  93 S6        30.08S FOG
EASTON         CLEAR    N/A N/A N/A SW3       30.10S
CAMBRIDGE      CLEAR     77  75  94 S5        30.07S
SALISBURY      PTCLDY    75  75 100 S6        30.08F FOG
OCEAN CITY     MOCLDY    79  77  94 SW9       30.08F
WALLOPS ISLAND PTCLDY    77  77 100 SW7       30.09S
ACCOMACK*      CLEAR     76  75  96 S8        30.09S
$$

NCZ012>017-030>032-221000-
NORTH CENTRAL AND EASTERN NORTH CAROLINA

CITY           SKY/WX    TMP DP  RH WIND       PRES   REMARKS
ROANOKE RAPIDS FAIR      72  72 100 CALM      30.10F FOG
RALEIGH        CLEAR     75  73  93 SW6       30.12S
ELIZABETH CITY CLEAR     74  74 100 S3        30.11F
AHOSKIE*         N/A     71  71 100 CALM      30.11S FOG
EDENTON*       CLEAR     78  76  91 CALM      30.12F
CURRITUCK*     CLEAR     74  73  97 CALM      30.12S
KILL DEVIL HLS CLEAR     78  74  90 CALM      30.11F
MANTEO         PTCLDY    79  75  89 SW6       30.12F
CAPE HATTERAS  CLEAR     74  74 100 E3        30.12F
TARBORO*       NOT AVBL
GOLDSBORO      FOG       74  72  93 W2        30.12F VSB 1/8
WASHINGTON     CLEAR     74  73  97 CALM      30.12F FOG
GREENVILLE     CLEAR     73  73 100 SW3       30.12F
NEW BERN       CLEAR     72  72 100 CALM      30.13F FOG
WILMINGTON     CLEAR     75  75 100 NE3       30.11F
$$

VAZ048-221000-
ELSEWHERE

CITY           SKY/WX    TMP DP  RH WIND       PRES   REMARKS
HARRISBURG PA  MOCLDY    71  71 100 E3        30.03F FOG
BALTIMORE      PTCLDY    70  70 100 CALM      30.04F
ANNAPOLIS      CLEAR     76  75  97 CALM      30.04F
ANDREWS AFB    CLEAR     74  71  91 S10       30.05F
PHILADELPHIA   CLOUDY    75  73  93 S6        30.05F FOG
HENDERSON NC   CLEAR     69  68  96 CALM      30.11F FOG
GREENSBORO     CLEAR     70  70 100 SW5       30.11F
ROCKY MOUNT    FOG       71  71 100 CALM      30.11F VSB 1
$$

VAZ100-221000-
MARINE

STATION/POSITION TIME  TEMP    WIND        PRES    WAVE   SWELL
                       AIR SEA DIR/SP/G            HT/PER HT/PER
                 (UTC) (F)     (DEG/KT/KT) (MB)    (FT/S) (FT/S)
BRANDYWINE LGT   0842   77     220/ 12/ 14 1018.5F
CAPE MAY NJ      0848   77 78  200/  5/  8 1017.9F
LEWES DE         0842   77 76  220/  5/  8 1018.0F
15NM E FENWICK I 0850   78 78  200/ 12/ 14 1019.0F   2/ 4   2/ 8
OCEAN-CITY-INLET 0842   78 79  220/ 12/ 14 1019.0F
WACHAPREAGUE VA  0842   78 83  240/  5/  7 1019.0F
THOMAS POINT MD  0900   78 81  210/ 13/ 14   N/A
GOOSES REEF MD   0900   79 80  210/ 12/ 14 1018.4    1/ 2
COVE POINT MD    0842   78     230/ 10/ 12 1018.7F
SOLOMONS ISLAND  0842   78 82  220/  9/ 11   N/A
BISHOPS HEAD MD  0842   80 81  210/ 12/ 13 1018.4F
PINEY POINT MD   0848          240/ 13/ 14   N/A
POTOMAC MD       0900   79 82  230/ 14/ 16 1017.6    1/ 2
CAMBRIDGE MD     0842   77 82              1018.9F
LEWISETTA VA     0842   78 83  210/  7/ 11 1018.2F
RAPPAHANNOCK LGT 0842          200/ 15/ 17 1019.4F
STINGRAY PT      0900   80 82  240/ 10/ 14 1019.1    1/ 3
YORK RVR RNG VA  0842   79     220/ 11/ 13 1019.2F
YORKTOWN VA      0842   77 83  220/  6/ 10 1018.6F
JAMESTOWN VA     0900      85  220/  4/  6   N/A     0
DOMINION TERM VA 0842   78     200/  9/ 10 1019.2F
KIPTOPEKE VA     0842      81  210/ 10/ 12   N/A
CHES BAY BRIDGE  0842   78 81  230/ 11/ 13 1019.0F
CAPE HENRY VA    0842   76     200/  5/  7   N/A
WILLOUBY STN VA  0842   78     220/ 13/ 14 1019.0F
S CRANEY ISL VA  0842   78     200/  7/ 10 1019.0F
CAPE HENRY BUOY  0830      80                N/A     2/ 9
1ST LANDING BUOY 0900   78 80              1019.1    1
64NM E OF VA BCH 0850   79 79  200/  8/  8 1020.2F   2/ 9   2/ 9
DUCK PIER NC     0842   80 76  190/  8/ 11 1019.3F
44100 DUCK FRF   0805      81                N/A     2/ 8
44056 DUCK FRF   0830      80                N/A     2/ 8   2/13
OREGON INLET NC  0842   81 80  180/  6/  7 1019.9F
HATTERAS NC      0842   80 82  140/  2/  3 1019.9F
DIAMOND SHLS NC  0850   82 86  350/  4/  6 1020.0F   3/ 9   3/ 9
CAPE LOOKOUT NC  0900   80     250/  3/  3 1019.4F
$$




USA.gov is the U.S. government's official web portal to all federal, state and local government web resources and services.